sat.trackr.live / text

‹ back to catalog

YUNHAI-3 02

NORAD 59343 · 2024-058A

PAYLOAD ACTIVE UNKNOWN

§ Identity

Operator
Country
PRC
Launch date
2024-03-26
Launch site
TAISC
Launch vehicle
Mass (kg)
RCS (m²)

External: N2YO · Heavens-Above · Gunter

§ Orbital elements

Epoch: 2026-09-22T22:56:48.137280Z

Period
101.89 min
Inclination
98.8244°
Eccentricity
0.0001977
Mean motion
14.13332379 rev/d
Perigee alt
846.6 km
Apogee alt
849.4 km
Semi-major
7,226.1 km
B*
2.8531e-5
RAAN
272.4557°
Arg perigee
92.6859°
Mean anomaly
267.4540°
Rev number
12,855

§ Raw data

YUNHAI-3 021 59343U 24058A   26265.95611270  .00000010  00000+0  28531-4 0  99982 59343  98.8244 272.4557 0001977  92.6859 267.4540 14.13332379128551

JSON: /api/v1/satellites/59343 · /tle

For live sub-satellite position, see the globe view (requires WebGL).

§ Visibility from observer

Set your observer location to see the next 7 days of passes ≥ 10°. The values pass through the URL so the page stays shareable.

No JS? Fill the form by hand. The geolocation button needs JavaScript.